DW8780 Weather Reports


Display with metric or nautical units.
time (UTC)temp
F
wind
direction
speed
MPH
gust
MPH
rain 1hr
in
rain 24hr
in
rain mn
in
humidity
%
barometer
mb
20260505192503 81 356 7.0 20.0 0.00 0.00 0.00 42 1012.6
20260505192002 81 353 6.0 16.0 0.00 0.00 0.00 41 1012.6
20260505190504 81 356 6.0 18.0 0.00 0.00 0.00 42 1012.9
20260505190004 81 2 6.0 19.0 0.00 0.00 0.00 42 1013.0
20260505185503 81 358 6.0 19.0 0.00 0.00 0.00 41 1012.9
20260505185003 81 356 7.0 26.0 0.00 0.00 0.00 42 1012.9
20260505184002 81 358 8.0 23.0 0.00 0.00 0.00 41 1012.9
20260505183502 82 355 6.0 19.0 0.00 0.00 0.00 41 1013.0
20260505183003 81 350 5.0 21.0 0.00 0.00 0.00 42 1012.9
20260505182503 81 353 5.0 21.0 0.00 0.00 0.00 42 1013.0
20260505182002 81 354 5.0 21.0 0.00 0.00 0.00 42 1012.9
20260505181003 81 345 5.0 17.0 0.00 0.00 0.00 41 1013.1
20260505180502 82 349 5.0 17.0 0.00 0.00 0.00 42 1013.2
20260505180003 81 349 5.0 13.0 0.00 0.00 0.00 46 1013.4
20260505175502 81 352 5.0 18.0 0.00 0.00 0.00 43 1013.3
20260505175002 82 357 5.0 18.0 0.00 0.00 0.00 43 1013.3
20260505174502 81 356 4.0 13.0 0.00 0.00 0.00 45 1013.4
20260505174002 81 356 3.0 13.0 0.00 0.00 0.00 45 1013.3
20260505173503 80 354 4.0 13.0 0.00 0.00 0.00 43 1013.5
20260505173002 80 353 5.0 15.0 0.00 0.00 0.00 45 1013.6
20260505172503 80 351 5.0 17.0 0.00 0.00 0.00 41 1013.6
20260505172002 81 355 4.0 17.0 0.00 0.00 0.00 43 1013.7
20260505171502 81 352 4.0 10.0 0.00 0.00 0.00 45 1013.7
20260505171003 80 346 4.0 11.0 0.00 0.00 0.00 45 1013.7
20260505170503 80 349 4.0 11.0 0.00 0.00 0.00 44 1013.8
20260505170004 80 351 4.0 10.0 0.00 0.00 0.00 45 1013.8
20260505165502 80 350 4.0 12.0 0.00 0.00 0.00 47 1013.7
20260505165002 80 350 5.0 14.0 0.00 0.00 0.00 47 1013.8
20260505164503 80 352 4.0 14.0 0.00 0.00 0.00 45 1014.0
20260505164003 80 350 4.0 9.0 0.00 0.00 0.00 46 1013.9
20260505163502 79 349 4.0 13.0 0.00 0.00 0.00 48 1014.0
20260505163003 79 345 3.0 13.0 0.00 0.00 0.00 46 1014.0
20260505162503 79 346 3.0 9.0 0.00 0.00 0.00 48 1014.1
20260505161502 78 354 4.0 11.0 0.00 0.00 0.00 47 1014.2
20260505160503 77 352 5.0 17.0 0.00 0.00 0.00 50 1014.3
20260505153003 76 351 4.0 18.0 0.00 0.00 0.00 50 1014.5
20260505152504 76 1 4.0 18.0 0.00 0.00 0.00 54 1014.5
20260505152003 75 357 5.0 19.0 0.00 0.00 0.00 54 1014.5
20260505151502 76 354 5.0 19.0 0.00 0.00 0.00 51 1014.4
20260505151003 76 356 5.0 14.0 0.00 0.00 0.00 52 1014.3
20260505150503 76 356 5.0 14.0 0.00 0.00 0.00 52 1014.3
20260505140503 72 346 4.0 16.0 0.00 0.00 0.00 58 1014.5
20260505125003 69 332 4.0 8.0 0.00 0.00 0.00 61 1014.2
20260505124502 69 337 3.0 7.0 0.00 0.00 0.00 63 1014.3
20260505123502 68 350 2.0 9.0 0.00 0.00 0.00 66 1014.2
20260505123003 68 351 2.0 14.0 0.00 0.00 0.00 65 1014.2
20260505122002 67 348 3.0 7.0 0.00 0.00 0.00 67 1014.1
20260505121503 66 355 3.0 7.0 0.00 0.00 0.00 67 1014.1
20260505121002 66 356 3.0 11.0 0.00 0.00 0.00 68 1014.1
20260505120503 65 340 3.0 11.0 0.00 0.00 0.00 71 1014.0
20260505120004 64 339 3.0 10.0 0.00 0.00 0.00 72 1014.0
20260505114504 63 348 3.0 11.0 0.00 0.00 0.00 74 1014.0
20260505114002 63 344 3.0 11.0 0.00 0.00 0.00 73 1013.9
20260505113503 63 342 2.0 7.0 0.00 0.00 0.00 74 1013.9
20260505113003 62 345 2.0 6.0 0.00 0.00 0.00 75 1013.9
20260505112502 62 350 2.0 6.0 0.00 0.00 0.00 76 1013.9
20260505112003 62 355 3.0 12.0 0.00 0.00 0.00 76 1014.0
20260505111502 61 356 3.0 12.0 0.00 0.00 0.00 76 1013.9
20260505110503 61 353 2.0 8.0 0.00 0.00 0.00 77 1013.9
20260505101503 61 356 2.0 8.0 0.00 0.00 0.00 77 1013.5
20260505101002 61 352 2.0 8.0 0.00 0.00 0.00 76 1013.5
20260505100503 61 344 2.0 9.0 0.00 0.00 0.00 76 1013.6
20260505100002 61 345 2.0 9.0 0.00 0.00 0.00 76 1013.5
20260505095503 61 342 2.0 8.0 0.00 0.00 0.00 76 1013.5
20260505095003 61 342 3.0 8.0 0.00 0.00 0.00 76 1013.4
20260505094002 61 341 2.0 9.0 0.00 0.00 0.00 76 1013.5
20260505093502 61 340 2.0 9.0 0.00 0.00 0.00 76 1013.4
20260505093002 61 344 2.0 7.0 0.00 0.00 0.00 76 1013.5
20260505092502 61 349 2.0 7.0 0.00 0.00 0.00 76 1013.4
20260505092002 61 351 2.0 6.0 0.00 0.00 0.00 76 1013.5
20260505091003 61 330 2.0 5.0 0.00 0.00 0.00 76 1013.4
20260505090503 61 326 2.0 5.0 0.00 0.00 0.00 76 1013.4
20260505085003 62 334 2.0 8.0 0.00 0.00 0.00 75 1013.3
20260505084502 62 330 2.0 6.0 0.00 0.00 0.00 75 1013.3
20260505084003 62 328 2.0 9.0 0.00 0.00 0.00 75 1013.2
20260505083002 62 337 2.0 6.0 0.00 0.00 0.00 74 1013.3
20260505082503 62 335 2.0 4.0 0.00 0.00 0.00 74 1013.3
20260505082003 62 344 2.0 4.0 0.00 0.00 0.00 73 1013.4
20260505081503 62 356 2.0 8.0 0.00 0.00 0.00 73 1013.4
20260505081003 63 358 3.0 8.0 0.00 0.00 0.00 73 1013.3
20260505080503 63 357 4.0 13.0 0.00 0.00 0.00 72 1013.3
20260505080003 63 355 3.0 13.0 0.00 0.00 0.00 72 1013.4
20260505075502 63 357 2.0 11.0 0.00 0.00 0.00 71 1013.4
20260505074502 63 351 2.0 11.0 0.00 0.00 0.00 71 1013.3
20260505074003 63 344 3.0 9.0 0.00 0.00 0.00 71 1013.3
20260505073502 63 345 3.0 9.0 0.00 0.00 0.00 70 1013.3
20260505073003 64 337 3.0 7.0 0.00 0.00 0.00 71 1013.2
20260505072003 64 334 3.0 9.0 0.00 0.00 0.00 71 1013.1
20260505071502 64 335 3.0 9.0 0.00 0.00 0.00 71 1013.2
20260505071003 64 332 2.0 7.0 0.00 0.00 0.00 71 1013.1
20260505070502 64 329 3.0 16.0 0.00 0.00 0.00 71 1013.1
20260505070002 64 339 3.0 16.0 0.00 0.00 0.00 71 1013.1
20260505065002 64 338 3.0 8.0 0.00 0.00 0.00 72 1013.0
20260505064502 64 347 3.0 10.0 0.00 0.00 0.00 72 1013.0
20260505064002 64 338 3.0 10.0 0.00 0.00 0.00 72 1013.0
20260505063503 64 341 3.0 8.0 0.00 0.00 0.00 72 1013.0
20260505063002 64 349 3.0 8.0 0.00 0.00 0.00 72 1013.0
20260505062503 64 353 3.0 11.0 0.00 0.00 0.00 71 1013.0
20260505061502 64 348 3.0 8.0 0.00 0.00 0.00 71 1013.0
20260505061003 64 341 2.0 7.0 0.00 0.00 0.00 71 1013.0
20260505060502 64 340 2.0 10.0 0.00 0.00 0.00 72 1012.9
20260505060002 64 350 2.0 10.0 0.00 0.00 0.00 72 1013.0
20260505055503 64 354 3.0 7.0 0.00 0.00 0.00 72 1013.0
20260505055003 64 353 3.0 7.0 0.00 0.00 0.00 72 1013.0
20260505054503 64 356 2.0 7.0 0.00 0.00 0.00 72 1013.0
20260505054003 64 5 2.0 7.0 0.00 0.00 0.00 72 1013.0
20260505053503 64 340 3.0 8.0 0.00 0.00 0.00 72 1013.0
20260505053003 64 334 3.0 8.0 0.00 0.00 0.00 72 1013.0
20260505052502 64 345 2.0 7.0 0.00 0.00 0.00 72 1013.0
20260505052003 64 334 2.0 10.0 0.00 0.00 0.00 72 1013.0
20260505051503 64 348 3.0 10.0 0.00 0.00 0.00 72 1013.1
20260505051002 64 352 2.0 7.0 0.00 0.00 0.00 71 1013.1
20260505041502 62 359 3.0 8.0 0.00 0.00 0.00 73 1013.1
20260505041004 62 359 3.0 8.0 0.00 0.00 0.00 74 1013.2
20260505040502 62 357 3.0 10.0 0.00 0.00 0.00 74 1013.2
20260505040003 62 352 2.0 10.0 0.00 0.00 0.00 74 1013.2
20260505035503 62 357 3.0 10.0 0.00 0.00 0.00 74 1013.1
20260505035002 62 354 3.0 11.0 0.00 0.00 0.00 74 1013.0
20260505034002 62 2 4.0 16.0 0.00 0.00 0.00 74 1012.9
20260505033503 62 2 4.0 16.0 0.00 0.00 0.00 74 1012.8
20260505032502 62 3 5.0 10.0 0.00 0.00 0.00 74 1013.0
20260505032003 62 2 4.0 10.0 0.00 0.00 0.00 74 1012.8
20260505031503 62 3 3.0 8.0 0.00 0.00 0.00 74 1013.0
20260505031002 62 2 4.0 10.0 0.00 0.00 0.00 73 1012.9
20260505030503 62 3 4.0 10.0 0.00 0.00 0.00 73 1013.0
20260505030002 62 2 4.0 11.0 0.00 0.00 0.00 72 1012.8
20260505025503 62 5 4.0 11.0 0.00 0.00 0.00 72 1012.9
20260505025003 62 7 3.0 7.0 0.00 0.00 0.00 72 1012.9
20260505024502 62 4 3.0 11.0 0.00 0.00 0.00 71 1012.9
20260505023503 62 4 3.0 8.0 0.00 0.00 0.00 70 1013.0
20260505023002 62 7 3.0 8.0 0.00 0.00 0.00 70 1012.9
20260505022003 63 10 4.0 10.0 0.00 0.00 0.00 69 1012.9
20260505021503 63 11 4.0 10.0 0.00 0.00 0.00 68 1012.9
20260505021003 63 8 4.0 12.0 0.00 0.00 0.00 68 1013.0
20260505020502 63 6 5.0 12.0 0.00 0.00 0.00 67 1013.1
20260505020003 63 11 5.0 11.0 0.00 0.00 0.00 66 1012.9
20260505015002 64 7 4.0 14.0 0.00 0.00 0.00 65 1012.9
20260505014504 64 11 4.0 9.0 0.00 0.00 0.00 64 1013.1
20260505014002 64 8 4.0 9.0 0.00 0.00 0.00 64 1013.0
20260505013503 64 4 5.0 12.0 0.00 0.00 0.00 63 1013.0
20260505013002 64 10 5.0 12.0 0.00 0.00 0.00 62 1012.9
20260505012503 65 11 4.0 12.0 0.00 0.00 0.00 62 1012.8
20260505012002 65 6 4.0 10.0 0.00 0.00 0.00 61 1012.8
20260505011503 65 5 4.0 10.0 0.00 0.00 0.00 61 1012.8
20260505011002 65 5 4.0 11.0 0.00 0.00 0.00 60 1012.7
20260505010502 66 6 5.0 11.0 0.00 0.00 0.00 59 1012.6
20260505005502 66 3 5.0 11.0 0.00 0.00 0.00 58 1012.5
20260505005003 66 3 5.0 10.0 0.00 0.00 0.00 57 1012.4
20260505004503 67 8 4.0 10.0 0.00 0.00 0.00 56 1012.5
20260505004002 67 9 4.0 9.0 0.00 0.00 0.00 56 1012.4
20260505003503 67 7 4.0 8.0 0.00 0.00 0.00 55 1012.5
20260505003003 68 5 4.0 9.0 0.00 0.00 0.00 54 1012.5
20260505002502 68 3 4.0 10.0 0.00 0.00 0.00 53 1012.5
20260505002003 68 3 4.0 10.0 0.00 0.00 0.00 52 1012.4
20260505001503 69 3 4.0 10.0 0.00 0.00 0.00 50 1012.4
20260505000503 69 1 3.0 9.0 0.00 0.00 0.00 46 1012.4
20260504235002 70 2 3.0 7.0 0.00 0.00 0.00 43 1012.2
20260504234502 70 2 4.0 9.0 0.00 0.00 0.00 41 1012.2
20260504234003 71 1 4.0 10.0 0.00 0.00 0.00 41 1012.1
20260504233502 71 358 3.0 10.0 0.00 0.00 0.00 40 1012.0
20260504233003 71 356 3.0 9.0 0.00 0.00 0.00 39 1011.9
20260504232503 71 357 3.0 9.0 0.00 0.00 0.00 38 1011.9
20260504231502 72 357 4.0 12.0 0.00 0.00 0.00 36 1012.0
20260504231003 72 351 3.0 11.0 0.00 0.00 0.00 36 1012.0
20260504230002 72 344 2.0 9.0 0.00 0.00 0.00 35 1012.0
20260504225003 73 345 4.0 14.0 0.00 0.00 0.00 34 1012.0
20260504224003 73 340 5.0 13.0 0.00 0.00 0.00 33 1011.9
20260504223502 74 349 6.0 22.0 0.00 0.00 0.00 33 1011.9
20260504223003 74 352 5.0 22.0 0.00 0.00 0.00 33 1012.0
20260504222502 74 353 4.0 12.0 0.00 0.00 0.00 33 1011.9
20260504222003 74 353 4.0 14.0 0.00 0.00 0.00 32 1012.1
20260504221003 74 355 5.0 13.0 0.00 0.00 0.00 32 1012.1
20260504220003 74 351 4.0 11.0 0.00 0.00 0.00 33 1012.1
20260504215503 74 355 5.0 16.0 0.00 0.00 0.00 33 1012.2
20260504215003 74 355 5.0 16.0 0.00 0.00 0.00 33 1012.3
20260504214503 75 351 3.0 9.0 0.00 0.00 0.00 34 1012.2
20260504214002 75 3 3.0 12.0 0.00 0.00 0.00 35 1012.2
20260504213503 75 354 3.0 12.0 0.00 0.00 0.00 35 1012.2
20260504213002 75 343 3.0 11.0 0.00 0.00 0.00 34 1012.3
20260504212503 75 345 4.0 11.0 0.00 0.00 0.00 34 1012.3
20260504212002 75 344 4.0 9.0 0.00 0.00 0.00 35 1012.3
20260504210503 75 359 4.0 15.0 0.00 0.00 0.00 34 1012.2
20260504210003 75 357 4.0 13.0 0.00 0.00 0.00 35 1012.3
20260504205502 75 354 4.0 12.0 0.00 0.00 0.00 33 1012.3
20260504205003 75 351 3.0 12.0 0.00 0.00 0.00 34 1012.3
20260504204502 75 346 4.0 9.0 0.00 0.00 0.00 34 1012.3
20260504204003 74 346 4.0 11.0 0.00 0.00 0.00 35 1012.4
20260504203003 74 353 4.0 12.0 0.00 0.00 0.00 34 1012.5
20260504202003 75 359 5.0 16.0 0.00 0.00 0.00 34 1012.6
20260504201504 74 6 6.0 18.0 0.00 0.00 0.00 35 1012.6
20260504201003 74 2 6.0 18.0 0.00 0.00 0.00 34 1012.6
20260504200506 74 354 4.0 17.0 0.00 0.00 0.00 34 1012.6
20260504200003 74 356 5.0 17.0 0.00 0.00 0.00 36 1012.6
20260504195502 74 1 5.0 16.0 0.00 0.00 0.00 33 1012.8
20260504195003 74 356 5.0 15.0 0.00 0.00 0.00 35 1012.9
20260504194002 74 5 6.0 16.0 0.00 0.00 0.00 35 1012.7
20260504193503 74 354 5.0 16.0 0.00 0.00 0.00 34 1012.9
20260504193003 74 338 4.0 11.0 0.00 0.00 0.00 33 1013.0